Time,TemperatureF,DewpointF,PressureIn,WindDirection,WindDirectionDegrees,WindSpeedMPH,WindSpeedGustMPH,Humidity,HourlyPrecipIn,Conditions,Clouds,dailyrainin,SolarRadiationWatts/m^2,SoftwareType,DateUTC
2013-01-31 00:00:00,14.5,8.3,29.89,NNW,338,5.0,6.0,76,0.00,,,0.00,0,Wunderground v.1.15,2013-01-31 06:00:00,
2013-01-31 00:05:00,14.4,8.2,29.89,NNW,337,5.0,6.0,76,0.00,,,0.00,0,Wunderground v.1.15,2013-01-31 06:05:00,
2013-01-31 00:15:00,14.2,8.0,29.90,NW,305,4.0,5.0,76,0.00,,,0.00,0,Wunderground v.1.15,2013-01-31 06:15:00,
2013-01-31 00:20:00,14.2,8.0,29.90,NNW,336,4.0,4.0,76,0.00,,,0.00,0,Wunderground v.1.15,2013-01-31 06:20:00,
2013-01-31 00:30:00,14.0,8.1,29.90,NW,308,4.0,4.0,77,0.00,,,0.00,0,Wunderground v.1.15,2013-01-31 06:30:00,
2013-01-31 00:40:00,13.9,8.0,29.90,WNW,301,4.0,4.0,77,0.00,,,0.00,0,Wunderground v.1.15,2013-01-31 06:40:00,
2013-01-31 00:50:00,13.8,7.6,29.90,NW,323,4.0,4.0,76,0.00,,,0.00,0,Wunderground v.1.15,2013-01-31 06:50:00,
2013-01-31 01:00:00,13.6,7.7,29.91,NW,317,4.0,4.0,77,0.00,,,0.00,0,Wunderground v.1.15,2013-01-31 07:00:00,
2013-01-31 01:10:00,13.5,7.6,29.91,NW,306,2.0,2.0,77,0.00,,,0.00,0,Wunderground v.1.15,2013-01-31 07:10:00,
2013-01-31 01:20:00,13.2,7.3,29.90,NW,312,4.0,6.0,77,0.00,,,0.00,0,Wunderground v.1.15,2013-01-31 07:20:00,
2013-01-31 01:30:00,13.0,6.9,29.90,WNW,302,6.0,6.0,76,0.00,,,0.00,0,Wunderground v.1.15,2013-01-31 07:30:00,
2013-01-31 01:35:00,12.9,6.8,29.90,NW,306,7.0,7.0,76,0.00,,,0.00,0,Wunderground v.1.15,2013-01-31 07:35:00,
2013-01-31 01:45:00,12.7,6.9,29.91,North,349,5.0,6.0,77,0.00,,,0.00,0,Wunderground v.1.15,2013-01-31 07:45:00,
2013-01-31 01:55:00,12.6,6.8,29.91,NW,311,4.0,7.0,77,0.00,,,0.00,0,Wunderground v.1.15,2013-01-31 07:55:00,
2013-01-31 02:05:00,12.1,6.3,29.92,NW,308,6.0,7.0,77,0.00,,,0.00,0,Wunderground v.1.15,2013-01-31 08:05:00,
2013-01-31 02:15:00,11.6,5.8,29.92,NW,304,6.0,7.0,77,0.00,,,0.00,0,Wunderground v.1.15,2013-01-31 08:15:00,
2013-01-31 02:20:00,11.4,5.6,29.92,WNW,298,6.0,6.0,77,0.00,,,0.00,0,Wunderground v.1.15,2013-01-31 08:20:00,
2013-01-31 02:25:00,11.3,5.5,29.92,NNW,327,7.0,7.0,77,0.00,,,0.00,0,Wunderground v.1.15,2013-01-31 08:25:00,
2013-01-31 02:35:00,11.0,5.5,29.94,NW,317,5.0,11.0,78,0.00,,,0.00,0,Wunderground v.1.15,2013-01-31 08:35:00,
2013-01-31 02:45:00,10.7,4.9,29.94,NW,308,6.0,9.0,77,0.00,,,0.00,0,Wunderground v.1.15,2013-01-31 08:45:00,
2013-01-31 02:50:00,10.6,4.8,29.94,NNW,328,5.0,5.0,77,0.00,,,0.00,0,Wunderground v.1.15,2013-01-31 08:50:00,
2013-01-31 03:00:00,10.3,4.5,29.94,NNW,343,5.0,6.0,77,0.00,,,0.00,0,Wunderground v.1.15,2013-01-31 09:00:00,
2013-01-31 03:10:00,10.0,3.9,29.94,NW,325,6.0,6.0,76,0.00,,,0.00,0,Wunderground v.1.15,2013-01-31 09:10:00,
2013-01-31 03:20:00,9.7,3.1,29.95,NNE,13,7.0,7.0,74,0.00,,,0.00,0,Wunderground v.1.15,2013-01-31 09:20:00,
2013-01-31 03:30:00,9.4,2.8,29.94,NW,321,6.0,6.0,74,0.00,,,0.00,0,Wunderground v.1.15,2013-01-31 09:30:00,
2013-01-31 03:40:00,9.0,2.1,29.94,NW,314,7.0,7.0,73,0.00,,,0.00,0,Wunderground v.1.15,2013-01-31 09:40:00,
2013-01-31 03:45:00,8.9,1.7,29.94,NNW,331,6.0,7.0,72,0.00,,,0.00,0,Wunderground v.1.15,2013-01-31 09:45:00,
2013-01-31 03:50:00,8.8,1.6,29.94,North,350,6.0,7.0,72,0.00,,,0.00,0,Wunderground v.1.15,2013-01-31 09:50:00,
2013-01-31 03:55:00,8.6,1.4,29.94,NW,320,6.0,7.0,72,0.00,,,0.00,0,Wunderground v.1.15,2013-01-31 09:55:00,
2013-01-31 04:00:00,8.5,1.3,29.95,NW,320,6.0,6.0,72,0.00,,,0.00,0,Wunderground v.1.15,2013-01-31 10:00:00,
2013-01-31 04:10:00,8.2,1.0,29.95,NW,309,5.0,6.0,72,0.00,,,0.00,0,Wunderground v.1.15,2013-01-31 10:10:00,
2013-01-31 04:20:00,8.1,0.9,29.95,North,350,5.0,5.0,72,0.00,,,0.00,0,Wunderground v.1.15,2013-01-31 10:20:00,
2013-01-31 04:30:00,8.0,1.1,29.96,WNW,302,4.0,4.0,73,0.00,,,0.00,0,Wunderground v.1.15,2013-01-31 10:30:00,
2013-01-31 04:40:00,7.8,0.9,29.96,NW,304,4.0,4.0,73,0.00,,,0.00,0,Wunderground v.1.15,2013-01-31 10:40:00,
2013-01-31 04:50:00,7.7,1.1,29.97,NNW,346,4.0,4.0,74,0.00,,,0.00,0,Wunderground v.1.15,2013-01-31 10:50:00,
2013-01-31 05:00:00,7.6,1.0,29.98,NNW,329,4.0,4.0,74,0.00,,,0.00,0,Wunderground v.1.15,2013-01-31 11:00:00,
2013-01-31 05:10:00,7.4,0.8,29.98,WNW,302,5.0,5.0,74,0.00,,,0.00,0,Wunderground v.1.15,2013-01-31 11:10:00,
2013-01-31 05:15:00,7.4,1.1,29.99,NW,319,5.0,5.0,75,0.00,,,0.00,0,Wunderground v.1.15,2013-01-31 11:15:00,
2013-01-31 05:20:00,7.4,1.1,29.99,NW,318,4.0,4.0,75,0.00,,,0.00,0,Wunderground v.1.15,2013-01-31 11:20:00,
2013-01-31 05:30:00,7.3,1.0,29.99,NW,309,4.0,5.0,75,0.00,,,0.00,0,Wunderground v.1.15,2013-01-31 11:30:00,
2013-01-31 05:40:00,7.3,1.3,29.99,NW,315,5.0,5.0,76,0.00,,,0.00,0,Wunderground v.1.15,2013-01-31 11:40:00,
2013-01-31 05:50:00,7.4,1.4,30.00,NW,306,6.0,7.0,76,0.00,,,0.00,0,Wunderground v.1.15,2013-01-31 11:50:00,
2013-01-31 06:00:00,7.5,1.2,29.99,NW,319,5.0,5.0,75,0.00,,,0.00,0,Wunderground v.1.15,2013-01-31 12:00:00,
2013-01-31 06:10:00,7.4,1.1,29.99,NW,312,5.0,5.0,75,0.00,,,0.00,0,Wunderground v.1.15,2013-01-31 12:10:00,
2013-01-31 06:20:00,7.4,1.4,30.00,North,350,4.0,9.0,76,0.00,,,0.00,0,Wunderground v.1.15,2013-01-31 12:20:00,
2013-01-31 06:30:00,7.4,1.4,30.01,NW,311,7.0,7.0,76,0.00,,,0.00,0,Wunderground v.1.15,2013-01-31 12:30:00,
2013-01-31 06:40:00,7.3,1.0,30.01,WNW,296,7.0,9.0,75,0.00,,,0.00,0,Wunderground v.1.15,2013-01-31 12:40:00,
2013-01-31 06:50:00,7.3,1.0,30.01,NW,307,6.0,9.0,75,0.00,,,0.00,0,Wunderground v.1.15,2013-01-31 12:50:00,
2013-01-31 06:55:00,7.3,1.0,30.01,NW,309,6.0,9.0,75,0.00,,,0.00,0,Wunderground v.1.15,2013-01-31 12:55:00,
2013-01-31 07:05:00,7.2,0.7,30.02,NNW,334,7.0,13.0,74,0.00,,,0.00,0,Wunderground v.1.15,2013-01-31 13:05:00,
2013-01-31 07:15:00,7.1,0.6,30.03,NW,314,7.0,9.0,74,0.00,,,0.00,0,Wunderground v.1.15,2013-01-31 13:15:00,
2013-01-31 07:20:00,7.1,0.6,30.03,NW,325,6.0,9.0,74,0.00,,,0.00,0,Wunderground v.1.15,2013-01-31 13:20:00,
2013-01-31 07:30:00,7.0,0.2,30.04,NW,315,7.0,7.0,73,0.00,,,0.00,0,Wunderground v.1.15,2013-01-31 13:30:00,
2013-01-31 07:40:00,6.9,0.4,30.04,NW,319,5.0,5.0,74,0.00,,,0.00,11,Wunderground v.1.15,2013-01-31 13:40:00,
2013-01-31 07:50:00,6.9,0.4,30.06,NNW,331,5.0,9.0,74,0.00,,,0.00,21,Wunderground v.1.15,2013-01-31 13:50:00,
2013-01-31 08:00:00,6.9,0.1,30.07,WNW,300,5.0,5.0,73,0.00,,,0.00,42,Wunderground v.1.15,2013-01-31 14:00:00,
2013-01-31 08:05:00,6.9,0.1,30.07,NNW,335,5.0,9.0,73,0.00,,,0.00,30,Wunderground v.1.15,2013-01-31 14:05:00,
2013-01-31 08:15:00,7.1,0.6,30.07,North,360,3.0,9.0,74,0.00,,,0.00,86,Wunderground v.1.15,2013-01-31 14:15:00,
2013-01-31 08:25:00,7.2,0.4,30.07,NW,317,3.0,9.0,73,0.00,,,0.00,102,Wunderground v.1.15,2013-01-31 14:25:00,
2013-01-31 08:30:00,7.2,0.4,30.08,NW,309,4.0,9.0,73,0.00,,,0.00,123,Wunderground v.1.15,2013-01-31 14:30:00,
2013-01-31 08:35:00,7.2,0.1,30.08,WNW,295,5.0,9.0,72,0.00,,,0.00,149,Wunderground v.1.15,2013-01-31 14:35:00,
2013-01-31 08:45:00,7.2,-0.2,30.09,NNE,13,7.0,9.0,71,0.00,,,0.00,179,Wunderground v.1.15,2013-01-31 14:45:00,
2013-01-31 08:55:00,7.5,0.1,30.09,NNW,340,5.0,9.0,71,0.00,,,0.00,202,Wunderground v.1.15,2013-01-31 14:55:00,
2013-01-31 09:05:00,7.5,-0.2,30.10,NNW,345,7.0,9.0,70,0.00,,,0.00,232,Wunderground v.1.15,2013-01-31 15:05:00,
2013-01-31 09:15:00,8.0,-0.4,30.12,NW,312,6.0,9.0,68,0.00,,,0.00,264,Wunderground v.1.15,2013-01-31 15:15:00,
2013-01-31 09:20:00,8.0,-0.4,30.12,WNW,302,7.0,7.0,68,0.00,,,0.00,279,Wunderground v.1.15,2013-01-31 15:20:00,
2013-01-31 09:30:00,7.8,-0.9,30.13,NW,306,9.0,9.0,67,0.00,,,0.00,315,Wunderground v.1.15,2013-01-31 15:30:00,
2013-01-31 09:35:00,8.2,-0.5,30.13,NNW,330,9.0,9.0,67,0.00,,,0.00,359,Wunderground v.1.15,2013-01-31 15:35:00,
2013-01-31 09:45:00,8.7,-0.3,30.14,West,281,8.0,13.0,66,0.00,,,0.00,410,Wunderground v.1.15,2013-01-31 15:45:00,
2013-01-31 09:55:00,8.4,-0.6,30.14,NW,312,10.0,12.0,66,0.00,,,0.00,406,Wunderground v.1.15,2013-01-31 15:55:00,
2013-01-31 10:00:00,8.2,-0.8,30.16,WNW,294,10.0,11.0,66,0.00,,,0.00,373,Wunderground v.1.15,2013-01-31 16:00:00,
2013-01-31 10:05:00,8.3,-0.4,30.16,WNW,290,10.0,11.0,67,0.00,,,0.00,278,Wunderground v.1.15,2013-01-31 16:05:00,
2013-01-31 10:10:00,8.0,-1.0,30.16,NW,322,10.0,10.0,66,0.00,,,0.00,267,Wunderground v.1.15,2013-01-31 16:10:00,
2013-01-31 10:20:00,7.8,-0.9,30.17,NW,322,10.0,10.0,67,0.00,,,0.00,243,Wunderground v.1.15,2013-01-31 16:20:00,
2013-01-31 10:30:00,7.8,-0.9,30.18,NNW,327,8.0,9.0,67,0.00,,,0.00,199,Wunderground v.1.15,2013-01-31 16:30:00,
2013-01-31 10:35:00,7.4,-1.3,30.18,NNW,345,9.0,16.0,67,0.00,,,0.00,229,Wunderground v.1.15,2013-01-31 16:35:00,
2013-01-31 10:40:00,7.1,-0.9,30.18,WNW,282,10.0,10.0,69,0.00,,,0.00,239,Wunderground v.1.15,2013-01-31 16:40:00,
2013-01-31 10:50:00,7.4,-1.0,30.20,NNW,330,8.0,11.0,68,0.00,,,0.00,262,Wunderground v.1.15,2013-01-31 16:50:00,
2013-01-31 10:55:00,7.2,-1.5,30.20,NW,304,8.0,11.0,67,0.00,,,0.00,239,Wunderground v.1.15,2013-01-31 16:55:00,
2013-01-31 11:05:00,6.8,-1.8,30.21,NNW,337,11.0,13.0,67,0.00,,,0.00,244,Wunderground v.1.15,2013-01-31 17:05:00,
2013-01-31 11:10:00,6.8,-2.5,30.21,North,360,12.0,14.0,65,0.00,,,0.00,313,Wunderground v.1.15,2013-01-31 17:10:00,
2013-01-31 11:20:00,7.2,-1.5,30.22,NNW,330,9.0,11.0,67,0.00,,,0.00,464,Wunderground v.1.15,2013-01-31 17:20:00,
2013-01-31 11:30:00,7.2,-1.8,30.23,NW,321,10.0,10.0,66,0.00,,,0.00,359,Wunderground v.1.15,2013-01-31 17:30:00,
2013-01-31 11:40:00,7.3,-2.0,30.23,NW,316,11.0,11.0,65,0.00,,,0.00,555,Wunderground v.1.15,2013-01-31 17:40:00,
2013-01-31 11:45:00,7.6,-1.7,30.23,NNE,27,11.0,13.0,65,0.00,,,0.00,517,Wunderground v.1.15,2013-01-31 17:45:00,
2013-01-31 11:55:00,7.4,-1.9,30.23,WNW,298,10.0,21.0,65,0.00,,,0.00,571,Wunderground v.1.15,2013-01-31 17:55:00,
2013-01-31 12:00:00,7.6,-2.4,30.23,North,350,11.0,14.0,63,0.00,,,0.00,561,Wunderground v.1.15,2013-01-31 18:00:00,
2013-01-31 12:10:00,7.5,-2.8,30.23,NW,321,11.0,20.0,62,0.00,,,0.00,508,Wunderground v.1.15,2013-01-31 18:10:00,
2013-01-31 12:20:00,7.7,-2.0,30.24,NW,318,12.0,12.0,64,0.00,,,0.00,541,Wunderground v.1.15,2013-01-31 18:20:00,
2013-01-31 12:25:00,8.1,-1.6,30.24,NNW,336,11.0,15.0,64,0.00,,,0.00,613,Wunderground v.1.15,2013-01-31 18:25:00,
2013-01-31 12:35:00,7.8,-2.2,30.24,NNW,338,10.0,10.0,63,0.00,,,0.00,591,Wunderground v.1.15,2013-01-31 18:35:00,
2013-01-31 12:45:00,7.8,-2.9,30.25,NW,321,10.0,10.0,61,0.00,,,0.00,550,Wunderground v.1.15,2013-01-31 18:45:00,
2013-01-31 12:55:00,7.6,-3.4,30.25,North,350,11.0,13.0,60,0.00,,,0.00,570,Wunderground v.1.15,2013-01-31 18:55:00,
2013-01-31 13:05:00,7.8,-2.9,30.25,NW,326,11.0,11.0,61,0.00,,,0.00,573,Wunderground v.1.15,2013-01-31 19:05:00,
2013-01-31 13:15:00,7.8,-2.5,30.25,NW,324,11.0,13.0,62,0.00,,,0.00,483,Wunderground v.1.15,2013-01-31 19:15:00,
2013-01-31 13:25:00,8.6,-1.4,30.25,NNW,344,9.0,10.0,63,0.00,,,0.00,336,Wunderground v.1.15,2013-01-31 19:25:00,
2013-01-31 13:35:00,8.5,-2.2,30.26,NNW,343,11.0,13.0,61,0.00,,,0.00,503,Wunderground v.1.15,2013-01-31 19:35:00,
2013-01-31 13:40:00,8.6,-2.1,30.26,NW,312,10.0,11.0,61,0.00,,,0.00,431,Wunderground v.1.15,2013-01-31 19:40:00,
2013-01-31 13:50:00,8.6,-2.5,30.26,NNW,338,11.0,11.0,60,0.00,,,0.00,272,Wunderground v.1.15,2013-01-31 19:50:00,
2013-01-31 14:00:00,8.6,-2.1,30.26,WNW,297,11.0,12.0,61,0.00,,,0.00,353,Wunderground v.1.15,2013-01-31 20:00:00,
2013-01-31 14:10:00,8.6,-2.5,30.26,WNW,296,11.0,11.0,60,0.00,,,0.00,360,Wunderground v.1.15,2013-01-31 20:10:00,
2013-01-31 14:15:00,8.6,-2.5,30.26,NW,314,10.0,11.0,60,0.00,,,0.00,381,Wunderground v.1.15,2013-01-31 20:15:00,
2013-01-31 14:25:00,8.7,-2.4,30.26,NNW,345,9.0,9.0,60,0.00,,,0.00,306,Wunderground v.1.15,2013-01-31 20:25:00,
2013-01-31 14:35:00,8.9,-1.8,30.26,NNW,342,9.0,12.0,61,0.00,,,0.00,327,Wunderground v.1.15,2013-01-31 20:35:00,
2013-01-31 14:45:00,9.4,-1.7,30.27,NW,311,7.0,11.0,60,0.00,,,0.00,441,Wunderground v.1.15,2013-01-31 20:45:00,
2013-01-31 14:55:00,9.2,-1.5,30.27,NNW,335,9.0,9.0,61,0.00,,,0.00,359,Wunderground v.1.15,2013-01-31 20:55:00,
2013-01-31 15:05:00,8.7,-2.7,30.28,NW,319,9.0,9.0,59,0.00,,,0.00,334,Wunderground v.1.15,2013-01-31 21:05:00,
2013-01-31 15:15:00,9.0,-1.7,30.28,NW,325,9.0,10.0,61,0.00,,,0.00,269,Wunderground v.1.15,2013-01-31 21:15:00,
2013-01-31 15:25:00,8.5,-2.6,30.28,NNW,346,9.0,9.0,60,0.00,,,0.00,302,Wunderground v.1.15,2013-01-31 21:25:00,
2013-01-31 15:35:00,8.7,-2.4,30.30,WNW,291,7.0,11.0,60,0.00,,,0.00,302,Wunderground v.1.15,2013-01-31 21:35:00,
2013-01-31 15:45:00,8.2,-3.2,30.30,WNW,302,9.0,10.0,59,0.00,,,0.00,264,Wunderground v.1.15,2013-01-31 21:45:00,
2013-01-31 15:55:00,8.7,-2.4,30.30,NW,321,6.0,9.0,60,0.00,,,0.00,236,Wunderground v.1.15,2013-01-31 21:55:00,
2013-01-31 16:00:00,8.5,-2.9,30.31,NNW,331,6.0,9.0,59,0.00,,,0.00,160,Wunderground v.1.15,2013-01-31 22:00:00,
2013-01-31 16:05:00,8.3,-2.7,30.31,NW,306,7.0,14.0,60,0.00,,,0.00,192,Wunderground v.1.15,2013-01-31 22:05:00,
2013-01-31 16:15:00,8.1,-2.9,30.31,WNW,297,8.0,9.0,60,0.00,,,0.00,207,Wunderground v.1.15,2013-01-31 22:15:00,
2013-01-31 16:20:00,8.3,-2.7,30.31,NNW,333,8.0,9.0,60,0.00,,,0.00,178,Wunderground v.1.15,2013-01-31 22:20:00,
2013-01-31 16:25:00,8.1,-2.9,30.31,NW,317,8.0,9.0,60,0.00,,,0.00,169,Wunderground v.1.15,2013-01-31 22:25:00,
2013-01-31 16:30:00,8.1,-2.6,30.31,NW,320,7.0,9.0,61,0.00,,,0.00,151,Wunderground v.1.15,2013-01-31 22:30:00,
2013-01-31 16:40:00,8.0,-2.7,30.31,NW,317,7.0,7.0,61,0.00,,,0.00,132,Wunderground v.1.15,2013-01-31 22:40:00,
2013-01-31 16:50:00,7.7,-3.0,30.32,WNW,301,7.0,11.0,61,0.00,,,0.00,72,Wunderground v.1.15,2013-01-31 22:50:00,
2013-01-31 16:55:00,7.6,-3.4,30.32,NW,312,8.0,11.0,60,0.00,,,0.00,77,Wunderground v.1.15,2013-01-31 22:55:00,
2013-01-31 17:05:00,7.2,-3.4,30.32,NW,304,9.0,9.0,61,0.00,,,0.00,42,Wunderground v.1.15,2013-01-31 23:05:00,
2013-01-31 17:15:00,6.9,-3.7,30.33,NW,322,8.0,9.0,61,0.00,,,0.00,21,Wunderground v.1.15,2013-01-31 23:15:00,
2013-01-31 17:25:00,6.6,-4.0,30.33,NNW,336,7.0,9.0,61,0.00,,,0.00,12,Wunderground v.1.15,2013-01-31 23:25:00,
2013-01-31 17:35:00,6.4,-3.9,30.33,NW,317,6.0,8.0,62,0.00,,,0.00,7,Wunderground v.1.15,2013-01-31 23:35:00,
2013-01-31 17:45:00,6.1,-4.1,30.33,NNW,329,6.0,9.0,62,0.00,,,0.00,0,Wunderground v.1.15,2013-01-31 23:45:00,
2013-01-31 17:55:00,5.8,-4.4,30.33,NW,319,6.0,9.0,62,0.00,,,0.00,0,Wunderground v.1.15,2013-01-31 23:55:00,
2013-01-31 18:05:00,5.5,-4.4,30.34,NW,319,5.0,9.0,63,0.00,,,0.00,0,Wunderground v.1.15,2013-02-01 00:05:00,
2013-01-31 18:15:00,5.3,-4.6,30.35,NW,307,7.0,9.0,63,0.00,,,0.00,0,Wunderground v.1.15,2013-02-01 00:15:00,
2013-01-31 18:25:00,5.1,-4.8,30.35,NW,309,6.0,9.0,63,0.00,,,0.00,0,Wunderground v.1.15,2013-02-01 00:25:00,
2013-01-31 18:30:00,5.0,-4.9,30.35,NNW,335,5.0,5.0,63,0.00,,,0.00,0,Wunderground v.1.15,2013-02-01 00:30:00,
2013-01-31 18:40:00,4.7,-4.8,30.35,NNW,333,4.0,9.0,64,0.00,,,0.00,0,Wunderground v.1.15,2013-02-01 00:40:00,
2013-01-31 18:50:00,4.4,-4.8,30.35,WNW,302,4.0,9.0,65,0.00,,,0.00,0,Wunderground v.1.15,2013-02-01 00:50:00,
2013-01-31 19:00:00,4.1,-5.1,30.36,NNW,338,5.0,5.0,65,0.00,,,0.00,0,Wunderground v.1.15,2013-02-01 01:00:00,
2013-01-31 19:10:00,3.8,-5.0,30.36,NW,325,5.0,9.0,66,0.00,,,0.00,0,Wunderground v.1.15,2013-02-01 01:10:00,
2013-01-31 19:20:00,3.6,-5.2,30.37,NW,316,5.0,9.0,66,0.00,,,0.00,0,Wunderground v.1.15,2013-02-01 01:20:00,
2013-01-31 19:30:00,3.4,-5.1,30.37,NW,318,5.0,9.0,67,0.00,,,0.00,0,Wunderground v.1.15,2013-02-01 01:30:00,
2013-01-31 19:40:00,3.3,-5.2,30.37,NNW,329,4.0,4.0,67,0.00,,,0.00,0,Wunderground v.1.15,2013-02-01 01:40:00,
2013-01-31 19:45:00,3.2,-5.3,30.37,NNW,336,4.0,9.0,67,0.00,,,0.00,0,Wunderground v.1.15,2013-02-01 01:45:00,
2013-01-31 19:55:00,3.1,-5.1,30.37,NNW,332,3.0,9.0,68,0.00,,,0.00,0,Wunderground v.1.15,2013-02-01 01:55:00,
2013-01-31 20:05:00,3.0,-5.2,30.38,North,355,4.0,4.0,68,0.00,,,0.00,0,Wunderground v.1.15,2013-02-01 02:05:00,
2013-01-31 20:15:00,2.9,-5.0,30.38,North,351,4.0,9.0,69,0.00,,,0.00,0,Wunderground v.1.15,2013-02-01 02:15:00,
2013-01-31 20:25:00,2.7,-5.2,30.38,NNW,344,2.0,9.0,69,0.00,,,0.00,0,Wunderground v.1.15,2013-02-01 02:25:00,
2013-01-31 20:35:00,2.6,-5.0,30.39,NNW,342,0.0,9.0,70,0.00,,,0.00,0,Wunderground v.1.15,2013-02-01 02:35:00,
2013-01-31 20:40:00,2.5,-5.4,30.39,NNW,331,0.0,9.0,69,0.00,,,0.00,0,Wunderground v.1.15,2013-02-01 02:40:00,
2013-01-31 20:50:00,2.3,-5.3,30.39,NW,320,0.0,9.0,70,0.00,,,0.00,0,Wunderground v.1.15,2013-02-01 02:50:00,
2013-01-31 21:00:00,2.2,-5.4,30.39,NNW,339,0.0,9.0,70,0.00,,,0.00,0,Wunderground v.1.15,2013-02-01 03:00:00,
2013-01-31 21:05:00,2.2,-5.4,30.39,NNW,346,0.0,9.0,70,0.00,,,0.00,0,Wunderground v.1.15,2013-02-01 03:05:00,
2013-01-31 21:10:00,2.1,-5.4,30.39,NW,313,0.0,9.0,70,0.00,,,0.00,0,Wunderground v.1.15,2013-02-01 03:10:00,
2013-01-31 21:15:00,2.1,-5.4,30.39,NNW,341,0.0,9.0,70,0.00,,,0.00,0,Wunderground v.1.15,2013-02-01 03:15:00,
2013-01-31 21:20:00,2.1,-5.4,30.39,NW,324,0.0,9.0,70,0.00,,,0.00,0,Wunderground v.1.15,2013-02-01 03:20:00,
2013-01-31 21:30:00,2.2,-5.6,30.39,NNW,333,0.0,9.0,69,0.00,,,0.00,0,Wunderground v.1.15,2013-02-01 03:30:00,
2013-01-31 21:40:00,2.2,-5.6,30.39,NW,324,0.0,9.0,69,0.00,,,0.00,0,Wunderground v.1.15,2013-02-01 03:40:00,
2013-01-31 21:50:00,2.1,-5.7,30.41,NW,322,0.0,9.0,69,0.00,,,0.00,0,Wunderground v.1.15,2013-02-01 03:50:00,
2013-01-31 22:00:00,2.0,-5.8,30.41,NW,314,0.0,9.0,69,0.00,,,0.00,0,Wunderground v.1.15,2013-02-01 04:00:00,
2013-01-31 22:05:00,1.9,-5.9,30.41,NW,312,0.0,9.0,69,0.00,,,0.00,0,Wunderground v.1.15,2013-02-01 04:05:00,
2013-01-31 22:15:00,1.8,-6.0,30.42,NW,305,0.0,9.0,69,0.00,,,0.00,0,Wunderground v.1.15,2013-02-01 04:15:00,
2013-01-31 22:20:00,1.7,-6.1,30.42,NW,310,0.0,9.0,69,0.00,,,0.00,0,Wunderground v.1.15,2013-02-01 04:20:00,
2013-01-31 22:25:00,1.7,-6.1,30.42,NW,319,0.0,9.0,69,0.00,,,0.00,0,Wunderground v.1.15,2013-02-01 04:25:00,
2013-01-31 22:30:00,1.6,-6.2,30.42,NW,324,0.0,9.0,69,0.00,,,0.00,0,Wunderground v.1.15,2013-02-01 04:30:00,
2013-01-31 22:35:00,1.5,-6.3,30.42,NW,311,0.0,9.0,69,0.00,,,0.00,0,Wunderground v.1.15,2013-02-01 04:35:00,
2013-01-31 22:45:00,1.4,-6.4,30.42,NNW,346,0.0,9.0,69,0.00,,,0.00,0,Wunderground v.1.15,2013-02-01 04:45:00,
2013-01-31 22:50:00,1.4,-6.1,30.42,NW,315,0.0,9.0,70,0.00,,,0.00,0,Wunderground v.1.15,2013-02-01 04:50:00,
2013-01-31 23:05:00,1.1,-6.1,30.42,NNW,346,0.0,9.0,71,0.00,,,0.00,0,Wunderground v.1.15,2013-02-01 05:05:00,
2013-01-31 23:10:00,0.9,-6.3,30.42,NNW,346,0.0,9.0,71,0.00,,,0.00,0,Wunderground v.1.15,2013-02-01 05:10:00,
2013-01-31 23:20:00,0.8,-6.1,30.41,NNW,346,0.0,9.0,72,0.00,,,0.00,0,Wunderground v.1.15,2013-02-01 05:20:00,
2013-01-31 23:25:00,0.8,-6.1,30.41,NNW,346,0.0,9.0,72,0.00,,,0.00,0,Wunderground v.1.15,2013-02-01 05:25:00,
2013-01-31 23:30:00,0.8,-6.1,30.43,NNW,327,0.0,9.0,72,0.00,,,0.00,0,Wunderground v.1.15,2013-02-01 05:30:00,
2013-01-31 23:35:00,0.9,-6.0,30.43,NNW,327,0.0,9.0,72,0.00,,,0.00,0,Wunderground v.1.15,2013-02-01 05:35:00,
2013-01-31 23:40:00,0.9,-6.0,30.43,NNW,327,0.0,9.0,72,0.00,,,0.00,0,Wunderground v.1.15,2013-02-01 05:40:00,
2013-01-31 23:50:00,0.9,-6.0,30.43,NW,326,0.0,9.0,72,0.00,,,0.00,0,Wunderground v.1.15,2013-02-01 05:50:00,